Content
SEND FEEDBACK

Daily
Averages
Monthly
Summary
United States of America

BEREA, KENTUCKY


Home > North America > United States > Kentucky
Elevation: 970 feet     Latitude: 37 34N     Longitude: 084 18W

WEATHER
 
SELECT A DAY
Number of Records: 91,479;   Date Range: 12/16/10 - 12/17/14
 
SHARE

PRINT THIS DATA

[ ← Previous Day ]
WEATHER ALMANAC - JANUARY 31, 2013
[ Next Day → ]
[ °C ]   °F
Weather ElementAverageHighLow
Temperature31.3 °F35.6 °F (5:15 pm)24.8 °F (11:55 pm)
Dewpoint22.9 °F30.2 °F (9:55 pm)19.4 °F (6:55 am)
Humidity71.8 %93 % (9:55 pm)56 % (5:15 pm)
Barometer29.91 in30.00 in (11:55 pm)29.70 in (12:35 am)
Wind Speed16.3 mph26.5 mph (11:15 pm)
Wind Gust43.7 mph (11:35 pm)
Weather ElementAverage
Visibility9 mi
Wind DirectionWSW (262.1 °)

Weather ElementTotal
Precipitation---
Heating Degree Days34.8 (Base 65)
Averaged from 70 records on January 31, 2013
WEATHER CONDITIONS BREAKOUT
WIND DIRECTION BREAKOUT
WEATHER BY HOUR - JANUARY 31, 2013
[ °C ]   °F
Local TimeTemperatureDewpointHumidityBarometerVisibilityWind DirectionWind SpeedGust SpeedPrecipitationEventsConditions
12:35 AM33.8 °F26.6 °F75 %29.70 in10.0 miWest (260°)19.6 mph26.5 mphOvercast
12:55 AM32.0 °F26.6 °F80 %29.72 in7.0 miWest (280°)17.3 mph26.5 mphOvercast
1:15 AM32.0 °F28.4 °F87 %29.74 in10.0 miWest (280°)19.6 mph26.5 mphOvercast
1:35 AM32.0 °F26.6 °F80 %29.75 in10.0 miWest (270°)19.6 mph27.6 mphOvercast
1:55 AM32.0 °F24.8 °F75 %29.76 in10.0 miWest (280°)25.3 mph32.2 mphOvercast
2:15 AM32.0 °F24.8 °F75 %29.77 in10.0 miWest (270°)25.3 mph33.4 mphOvercast
2:35 AM32.0 °F23.0 °F69 %29.78 in10.0 miWest (270°)19.6 mph38.0 mphOvercast
2:55 AM32.0 °F23.0 °F69 %29.79 in10.0 miWest (270°)19.6 mph27.6 mphOvercast
3:15 AM30.2 °F23.0 °F75 %29.80 in10.0 miWest (280°)19.6 mph32.2 mphOvercast
3:35 AM30.2 °F23.0 °F75 %29.80 in10.0 miWest (270°)21.9 mph31.1 mphOvercast
3:55 AM30.2 °F23.0 °F75 %29.81 in10.0 miWest (280°)20.7 mph29.9 mphOvercast
4:15 AM30.2 °F21.2 °F69 %29.82 in10.0 miWest (280°)18.4 mph32.2 mphOvercast
4:35 AM28.4 °F21.2 °F74 %29.82 in10.0 miWNW (290°)24.2 mph29.9 mphOvercast
4:55 AM28.4 °F21.2 °F74 %29.84 in10.0 miWNW (290°)23.0 mph33.4 mphOvercast
5:15 AM28.4 °F21.2 °F74 %29.84 in10.0 miWest (280°)17.3 mph24.2 mphOvercast
5:35 AM28.4 °F21.2 °F74 %29.84 in10.0 miWNW (290°)15.0 mph19.6 mphOvercast
5:55 AM28.4 °F21.2 °F74 %29.85 in10.0 miWest (270°)17.3 mph24.2 mphOvercast
6:15 AM28.4 °F21.2 °F74 %29.86 in10.0 miWest (270°)10.4 mphOvercast
6:35 AM28.4 °F21.2 °F74 %29.87 in10.0 miWest (270°)19.6 mph25.3 mphOvercast
6:55 AM28.4 °F19.4 °F69 %29.88 in10.0 miWest (260°)16.1 mph26.5 mphOvercast
7:15 AM28.4 °F19.4 °F69 %29.89 in10.0 miWest (260°)16.1 mph23.0 mphOvercast
7:55 AM26.6 °F23.0 °F86 %29.91 in10.0 miWest (260°)9.2 mph17.3 mphOvercast
8:15 AM28.4 °F21.2 °F74 %29.91 in10.0 miWSW (250°)13.8 mph17.3 mphOvercast
8:35 AM28.4 °F19.4 °F69 %29.92 in10.0 miWSW (250°)13.8 mph24.2 mphOvercast
8:55 AM28.4 °F19.4 °F69 %29.93 in10.0 miWest (260°)18.4 mph25.3 mphOvercast
9:15 AM28.4 °F19.4 °F69 %29.95 in10.0 miWest (280°)16.1 mph24.2 mphOvercast
9:35 AM28.4 °F21.2 °F74 %29.96 in7.0 miWest (280°)18.4 mph25.3 mphOvercast
9:55 AM28.4 °F23.0 °F80 %29.96 in10.0 miWest (280°)12.7 mph21.9 mphOvercast
10:15 AM28.4 °F21.2 °F74 %29.97 in10.0 miWest (270°)17.3 mph21.9 mphOvercast
10:35 AM30.2 °F21.2 °F69 %29.98 in10.0 miWest (270°)19.6 mph27.6 mphOvercast
10:55 AM30.2 °F21.2 °F69 %29.98 in10.0 miWest (280°)18.4 mph21.9 mphOvercast
11:15 AM30.2 °F19.4 °F64 %29.99 in10.0 miWest (260°)21.9 mph28.8 mphOvercast
11:35 AM30.2 °F19.4 °F64 %29.99 in10.0 miWest (270°)18.4 mph25.3 mphOvercast
11:55 AM30.2 °F19.4 °F64 %29.99 in10.0 miWest (280°)18.4 mph26.5 mphOvercast
12:15 PM30.2 °F19.4 °F64 %29.99 in10.0 miWest (270°)17.3 mph23.0 mphOvercast
12:35 PM30.2 °F19.4 °F64 %29.99 in10.0 miWest (260°)17.3 mph25.3 mphOvercast
12:55 PM30.2 °F21.2 °F69 %29.98 in10.0 miWest (260°)15.0 mph23.0 mphOvercast
1:15 PM32.0 °F21.2 °F64 %29.97 in10.0 miWest (260°)19.6 mph29.9 mphOvercast
1:35 PM32.0 °F21.2 °F64 %29.97 in10.0 miWest (260°)21.9 mph31.1 mphOvercast
1:55 PM32.0 °F19.4 °F60 %29.98 in10.0 miWest (260°)24.2 mph38.0 mphOvercast
2:15 PM32.0 °F19.4 °F60 %29.96 in10.0 miWest (260°)20.7 mph26.5 mphOvercast
2:35 PM33.8 °F21.2 °F60 %29.95 in10.0 miWest (260°)15.0 mph23.0 mphMostly Cloudy
2:55 PM32.0 °F19.4 °F60 %29.96 in10.0 miWest (260°)19.6 mph24.2 mphMostly Cloudy
3:15 PM33.8 °F21.2 °F60 %29.96 in10.0 miWest (260°)17.3 mph24.2 mphOvercast
3:35 PM33.8 °F21.2 °F60 %29.96 in10.0 miWSW (250°)17.3 mph23.0 mphOvercast
3:55 PM33.8 °F21.2 °F60 %29.96 in10.0 miWest (270°)16.1 mph20.7 mphOvercast
4:15 PM33.8 °F21.2 °F60 %29.96 in10.0 miWSW (250°)15.0 mphOvercast
4:35 PM33.8 °F21.2 °F60 %29.96 in10.0 miWest (260°)10.4 mphOvercast
4:55 PM33.8 °F23.0 °F65 %29.95 in10.0 miWSW (250°)10.4 mph17.3 mphOvercast
5:15 PM35.6 °F21.2 °F56 %29.95 in10.0 miWSW (240°)12.7 mph17.3 mphOvercast
5:35 PM33.8 °F23.0 °F65 %29.94 in10.0 miWSW (250°)8.1 mphOvercast
5:55 PM33.8 °F23.0 °F65 %29.95 in10.0 miWSW (250°)8.1 mph16.1 mphOvercast
6:15 PM33.8 °F23.0 °F65 %29.95 in10.0 miWSW (240°)9.2 mphOvercast
6:35 PM33.8 °F23.0 °F65 %29.95 in10.0 miWSW (240°)10.4 mphOvercast
6:55 PM33.8 °F23.0 °F65 %29.95 in10.0 miWSW (240°)10.4 mph17.3 mphOvercast
7:15 PM35.6 °F23.0 °F60 %29.96 in10.0 miWSW (240°)11.5 mph20.7 mphOvercast
7:35 PM35.6 °F23.0 °F60 %29.96 in10.0 miWSW (250°)15.0 mph25.3 mphOvercast
7:55 PM33.8 °F24.8 °F70 %29.96 in10.0 miWSW (240°)16.1 mph23.0 mphOvercast
8:15 PM33.8 °F26.6 °F75 %29.94 in10.0 miWSW (250°)10.4 mphOvercast
8:35 PM33.8 °F26.6 °F75 %29.94 in10.0 miWSW (240°)12.7 mph17.3 mphOvercast
8:55 PM33.8 °F26.6 °F75 %29.94 in10.0 miSW (230°)12.7 mph21.9 mphOvercast
9:15 PM33.8 °F28.4 °F81 %29.93 in7.0 miSW (230°)11.5 mph18.4 mphOvercast
9:35 PM33.8 °F28.4 °F81 %29.92 in5.0 miSW (230°)5.8 mphOvercast
9:55 PM32.0 °F30.2 °F93 %29.93 in3.0 miWSW (240°)9.2 mphOvercast
10:15 PM32.0 °F30.2 °F93 %29.92 in1.8 miSW (230°)8.1 mphOvercast
10:35 PM32.0 °F30.2 °F93 %29.91 in4.0 miSW (220°)8.1 mphOvercast
10:55 PM32.0 °F30.2 °F93 %29.92 in4.0 miWSW (250°)9.2 mphOvercast
11:15 PM32.0 °F30.2 °F93 %29.94 in1.2 miWNW (290°)26.5 mph40.3 mphOvercast
11:35 PM30.2 °F28.4 °F93 %29.96 in2.0 miWest (280°)25.3 mph43.7 mphOvercast
11:55 PM24.8 °F23.0 °F93 %30.00 in1.0 miNW (320°)21.9 mph34.5 mphOvercast
Hourly data recorded from KI39, located miles away from Berea, Kentucky







STORIES FROM OUR PARTNERS